Regional Weather Roundup
Issued by NWS

Home | Current Version | Previous Version | Graphics & Text | Print | Product List | Glossary On
Versions: 1 2 3 4 5 6 7 8 9 10 11 12 13 14 15 16 17 18 19 20 21 22 23 24 25 26 27 28 29 30 31 32 33 34 35 36 37 38 39 40 41 42 43 44 45 46 47 48 49 50
000
ASUS43 KOAX 261710
RWRNE

WEATHER ROUNDUP FOR NEBRASKA
NATIONAL WEATHER SERVICE OMAHA NE
1200 PM CDT FRI MAY 26 2017

NOTES: SATELLITE DATA IS BEING USED TO AUGMENT CLOUD COVER ABOVE
       12000 FEET.
       "FAIR" INDICATES FEW OR NO CLOUDS BELOW 12,000 FEET WITH NO
       SIGNIFICANT WEATHER AND/OR OBSTRUCTIONS TO VISIBILITY.

  * THESE STATIONS DO NOT REPORT WEATHER SUCH AS RAIN...SNOW OR FOG.

NEZ001>004-019>022-054>056-261800-
NEBRASKA PANHANDLE

CITY           SKY/WX    TMP DP  RH WIND       PRES   REMARKS
SCOTTSBLUFF    SUNNY     60  39  45 SW5       29.95F
ALLIANCE       SUNNY     60  40  47 VRB5      29.94F
CHADRON        SUNNY     61  37  41 VRB3      29.93F
GORDON         FAIR      61  33  34 N7        29.94S
KIMBALL        SUNNY     57  37  46 SE7       29.97F
SIDNEY         SUNNY     58  39  49 CALM      29.97F
$$

NEZ057>060-069>072-079>082-261800-
SOUTHWEST NEBRASKA

CITY           SKY/WX    TMP DP  RH WIND       PRES   REMARKS
NORTH PLATTE   SUNNY     67  43  41 N13       29.93S
IMPERIAL       SUNNY     63  45  51 NE12G17   29.95F
LEXINGTON      MOSUNNY   66  47  50 N12       29.91R
MCCOOK         SUNNY     67  46  47 N10       29.92S
OGALLALA       SUNNY     64  41  43 E5        29.95S
$$

NEZ005>010-023>029-035>040-094-261800-
NORTH CENTRAL NEBRASKA

CITY           SKY/WX    TMP DP  RH WIND       PRES   REMARKS
VALENTINE      SUNNY     66  36  32 N10       29.91F
AINSWORTH      SUNNY     63  43  48 N12G22    29.91S
BROKEN BOW     CLOUDY    68  42  38 N20       29.90R
O`NEILL        CLOUDY    66  42  42 NW12      29.89R
ORD            MOSUNNY   64  44  48 NW14G23   29.89R
THEDFORD       SUNNY     64  41  43 N5G10     29.93F
$$

NEZ041-046>049-061>064-073>077-083>087-261800-
SOUTH CENTRAL NEBRASKA

CITY           SKY/WX    TMP DP  RH WIND       PRES   REMARKS
GRAND ISLAND   PTSUNNY   70  47  43 N13       29.88R
AURORA         MOSUNNY   70  45  40 N15       29.86R
HASTINGS       SUNNY     69  46  43 N15       29.88R
HEBRON         SUNNY     75  48  39 N13G22    29.82R
HOLDREGE       CLOUDY    65  43  45 N9        29.90R
KEARNEY *      PTSUNNY   66  46  48 N16G22    29.89S
YORK           MOSUNNY   70  48  46 N15G24    29.85R
$$

NEZ011>018-030>034-042>045-261800-
NORTHEAST NEBRASKA

CITY           SKY/WX    TMP DP  RH WIND       PRES   REMARKS
NORFOLK        SUNNY     70  48  45 N14       29.82F
ALBION         SUNNY     69  47  45 NW14G21   29.86R
BLAIR          MOSUNNY   70  55  59 N9        29.80R
FREMONT        SUNNY     72  48  43 N10G20    29.82S
TEKAMAH        MOSUNNY   72  52  49 N12       29.79R
WAYNE          SUNNY     71  49  45 NW15G23   29.83R
$$

NEZ050>053-065>068-078-088>093-261800-
SOUTHEAST NEBRASKA

CITY           SKY/WX    TMP DP  RH WIND       PRES   REMARKS
LINCOLN        SUNNY     75  52  44 N13G20    29.82R
OMAHA EPPLEY   MOSUNNY   74  57  55 NW15      29.78R
BEATRICE       SUNNY     77  57  50 N15       29.80S
FALLS CITY     SUNNY     79  61  53 N12       29.75R
NEBRASKA CITY  SUNNY     77  55  45 NE10G17   29.78R
PLATTSMOUTH    SUNNY     76  57  52 N13       29.78R
$$

NEZ044-045-051>053-067-261800-
OMAHA AREA

CITY           SKY/WX    TMP DP  RH WIND       PRES   REMARKS
OMAHA EPPLEY   MOSUNNY   74  57  55 NW15      29.78R
BLAIR          MOSUNNY   70  55  59 N9        29.80R
FREMONT        SUNNY     72  48  43 N10G20    29.82S
MILLARD        MOSUNNY   74  56  53 N7        29.79R
OFFUTT AFB     SUNNY     74  58  58 N9        29.77R
PLATTSMOUTH    SUNNY     76  57  52 N13       29.78R
WAHOO          FAIR      72  49  43 N14G20    29.81R
$$




USA.gov is the U.S. government's official web portal to all federal, state and local government web resources and services.